Regional Weather Roundup
Issued by NWS Sterling, VA

Home | Current Version | Previous Version | Graphics & Text | Print | Product List | Glossary On
Versions: 1 2 3 4 5 6 7 8 9 10 11 12 13 14 15 16 17 18 19 20 21 22 23 24 25 26 27
000
ASUS41 KLWX 160611
RWRLWX

REGIONAL WEATHER ROUNDUP
NATIONAL WEATHER SERVICE BALTIMORE MD/WASHINGTON DC
200 AM EDT MON OCT 16 2017

Note: "FAIR" indicates few or no clouds below 12,000 feet
with no significant weather and/or obstructions to visibility.
 TC=TEMPERATURE CELSIUS

 * =Non NWS site. Station does not report precipitation (e.g. rain,
    snow, etc.), thunder, or fog.

DCZ001-MDZ009-015-VAZ040>042-051-053>054-160700-
WASHINGTON METRO

CITY           SKY/WX    TMP DP  RH WIND       PRES   REMARKS
WASHINGTON NAT CLOUDY    71  61  70 NW21G29   29.93R
DULLES         CLOUDY    67  62  84 NW13G21   29.94R
ANDREWS AFB    CLOUDY    71  64  79 NW16      29.91R
FT BELVOIR     LGT RAIN  70  64  83 NW12      29.92R
QUANTICO       LGT RAIN  70  66  87 NW13G20   29.93R
COLLEGE PARK*  CLOUDY    69  60  72 NW10      29.91R
LEESBURG*      DRIZZLE   64  63  94 N9        29.96R
MANASSAS*      LGT RAIN  68  64  87 N9        29.94R
GAITHERSBURG*  CLOUDY    66  58  75 NW7       29.95R

$$

MDZ006>007-011-014-160700-
BALTIMORE METRO

CITY           SKY/WX    TMP DP  RH WIND       PRES   REMARKS
BWI AIRPORT    CLOUDY    69  62  78 W8        29.90R
MD SCIENCE CTR   N/A     71  61  70 MISG      29.90R
ANNAPOLIS      CLOUDY    74  69  85 W8        29.88R
FORT MEADE*    CLOUDY    70  63  78 NW9G17    29.93R

$$

MDZ012-015-019>023-160700-
MARYLAND EASTERN SHORE

CITY           SKY/WX    TMP DP  RH WIND       PRES   REMARKS
OCEAN CITY     CLEAR     72  66  81 SW13      29.89F
SALISBURY      PTCLDY    71  67  87 SW10      29.89S
CAMBRIDGE*     CLOUDY    73  68  83 SW6       29.90R
EASTON*        CLOUDY    73  67  83 W6        29.93S

$$

MDZ017>025-160700-
SOUTHERN MARYLAND

CITY           SKY/WX    TMP DP  RH WIND       PRES   REMARKS
PATUXENT RIVER CLOUDY    73  67  81 W13       29.90R
ST INIGOES     CLOUDY    73  67  81 SW10      29.89S
LEONARDTOWN*   NOT AVBL

$$

MDZ003>005-160700-
NORTH CENTRAL MARYLAND

CITY           SKY/WX    TMP DP  RH WIND       PRES   REMARKS
FREDERICK*     RAIN      68  55  64 N5        29.97R
HAGERSTOWN APT CLOUDY    64  58  80 W5        29.96R
WESTMINSTER*   LGT RAIN  63  61  94 NW10G20   29.94R

$$

MDZ501>502-160700-
WESTERN MARYLAND

CITY           SKY/WX    TMP DP  RH WIND       PRES   REMARKS
OAKLAND*       CLOUDY    46  46 100 W10       30.02S
CUMBERLAND*    MOCLDY    63  50  63 W8G18     30.05R

$$

VAZ025>031-160700-
SHENANDOAH VALLEY

CITY           SKY/WX    TMP DP  RH WIND       PRES   REMARKS
WINCHESTER*    DRIZZLE   61  59  94 NW6       29.98R
FRONT ROYAL*   CLOUDY    63  61  94 NW5       29.97R
LURAY*         RAIN      64  59  82 NW9G16    29.97R
NEW MARKET*    CLOUDY    61  60  96 CALM      29.98R
STAUNTON*      DRIZZLE   65  59  81 N6        30.00R
WAYNESBORO*    CLOUDY    64  61  91 NW10G20   29.99R

$$

WVZ021-048>050-054>055-160700-
EASTERN WEST VIRGINIA PANHANDLE

CITY           SKY/WX    TMP DP  RH WIND       PRES   REMARKS
MARTINSBURG    CLOUDY    65  51  60 NW12      29.96R
PETERSBURG*    CLOUDY    61  49  64 NW10      30.03R

$$

VAZ036>039-050-160700-
CENTRAL FOOTHILLS

CITY           SKY/WX    TMP DP  RH WIND       PRES   REMARKS
CHARLOTTESVILL CLOUDY    71  64  78 N7        29.94R
CULPEPER*      DRIZZLE   68  63  85 CALM      29.95R
ORANGE*        CLOUDY    68  64  88 CALM      29.93S
GORDONSVILLE*  CLOUDY    70  67  90 CALM      29.92S
WARRENTON*     DRIZZLE   67  61  79 N3        29.93S

$$

VAZ055>057-160700-
NORTH AND CENTRAL PIEDMONT

CITY           SKY/WX    TMP DP  RH WIND       PRES   REMARKS
FREDERICKSBRG* RAIN      71  67  88 N7        29.91R
STAFFORD*      DRIZZLE   68  68 100 NW8       29.97R

$$

NCZ024-NYZ072-PAZ021-071-VAZ022-071-160700-
OTHER REGIONAL OBSERVATIONS

CITY           SKY/WX    TMP DP  RH WIND       PRES   REMARKS
NEW YORK CITY  CLOUDY    68  65  90 W7        29.84S
PHILADELPHIA   CLOUDY    71  65  81 NW12      29.87R
PITTSBURGH     CLOUDY    55  46  71 NW15G22   30.06R
ROANOKE        CLOUDY    67  59  75 VRB6      30.02R
RICHMOND       CLOUDY    72  67  84 SW14      29.92F
RALEIGH        PTCLDY    69  66  90 SW9       29.99F

$$

ANZ530>537-160700-
MARINE OBSERVATIONS

STATION/POSITION TIME  TEMP    WIND        PRES
                       AIR SEA DIR/SP/G
                 (UTC) (F)     (DEG/KT/KT) (MB)
THOMAS PT LIGHT  0600   72 71  290/  9/ 11   N/A
BALT KEY BRIDGE  0542   71     300/ 15/ 17 1011.9R
COVE POINT       0542   73     280/ 10/ 14 1013.0R
LEWISETTA        0542   73 71  240/ 15/ 19 1011.9F
SOLOMONS ISLAND  0542   73 72  280/  7/ 13 1012.3R
PINEY POINT      0536          260/  8/ 10   N/A

$$





USA.gov is the U.S. government's official web portal to all federal, state and local government web resources and services.